METEOR 2-11

导读

METEOR 2-11是独联体(CIS)继承自苏联航天遗产发射的第二代极轨气象卫星,属于“流星-2”系列,于1984年7月5日成功入轨。它运行在约850-950公里高度的近极轨道,携带可见光/红外相机与辐射探测设备,可获取云层、大气辐射数据,支撑气象预报与气候研究,为全球气象观测网络提供了重要数据支撑,是苏联气象卫星体系延续发展的代表性节点。

Basic Information
目录编号:
15099
目录名称:
METEOR 2-11
国际标识:
1984-072A
轨道中心:
EARTH
卫星名称:
METEOR 2-11
卫星全名:
--
卫星状态:
在轨 (已飞行15318 天)
发射日期:
1984-07-05 UTC
国别 :
俄罗斯(独联体) (CIS)
星等 :
--
Orbit Information
数据来源 国际轨道数据 AOE轨道数据
星历时间 2026-06-12T11:16:15+0800
23小时前
查看轨道信息
2026-06-11T01:00:00+0800
2天前
查看轨道信息
半长轴 7323.285km 7323.287km
偏心率 0.0014424 0.0014426
轨道倾角 82.531° 82.531°
近地点辐角 102.960° 106.524°
升交点赤经 43.203° 44.342°
平近点角 257.317° 336.467°
近地点 934.584km 934.585km
远地点 955.712km 955.715km
周期 103.949分钟 103.949分钟
每日圈数 13.853002 13.852997
Detailed Information
使用方式:
暂无
2D Orbit Map
3D Orbit Map
Orbit Altitude Analysis Chart
Orbit Inclination Analysis Chart
Orbit Comprehensive Analysis Chart
View Comprehensive Chart